Regional Weather Roundup
Issued by NWS

Home | Current Version | Previous Version | Graphics & Text | Print | Product List | Glossary On
Versions: 1 2 3 4 5 6 7 8 9 10 11 12 13 14 15 16 17 18 19 20 21 22 23 24 25 26 27 28 29 30 31 32 33 34 35 36 37 38 39 40 41 42 43 44 45 46 47 48 49 50
000
ASUS45 KSLC 280210
RWRUT

UTAH REGIONAL WEATHER ROUNDUP
NATIONAL WEATHER SERVICE SALT LAKE CITY UT
700 PM MST FRI FEB 27 2015

UTZ001>011-023>025-280300-

NORTHERN UTAH

CITY           SKY/WX    TMP DP  RH WIND       PRES   REMARKS
BRIGHAM CITY   CLOUDY    35  30  81 N13       29.72R WCI  27
HILL AFB       PTCLDY    35  21  55 E6        29.70R WCI  30
LOGAN          CLOUDY    36  28  73 NE7       29.73R WCI  30
OGDEN          PTCLDY    38  23  55 N3        29.70R
PROVO AIRPORT  NOT AVBL
SALT LAKE CITY PTCLDY    37  27  67 S5        29.70S WCI  33
VERNAL         PTCLDY    31  13  47 SW3       29.75R
WENDOVER       CLOUDY    43  25  49 NW6       29.66R
HEBER CITY     CLOUDY    32  21  64 E5        29.70R WCI  27
WEST JORDAN    CLEAR     34  27  75 S6        29.71R WCI  29

$$

UTZ012>022-026-027-280300-

SOUTHERN/CENTRAL UTAH

CITY           SKY/WX    TMP DP  RH WIND       PRES   REMARKS
BLANDING       CLOUDY    30  29  96 CALM      29.83S
BRYCE CANYON   LGT SNOW  26  24  92 S3        29.70S VSB 1
CEDAR CITY     PTCLDY    37  24  59 SE5       29.64S WCI  33
DELTA          PTCLDY    39  22  51 NE6       29.67R WCI  34
HANKSVILLE     CLOUDY    39  30  70 S6        29.74R WCI  35
MILFORD        PTCLDY    36  15  42 SW3       29.64S
MOAB/CYNLANDS  CLOUDY    39  25  57 E10       29.71R WCI  32
PRICE          CLOUDY    33  23  66 NE5       29.72R WCI  29
ST GEORGE      PTCLDY    55  28  35 SW3       29.64S
KANAB          PTCLDY    36  34  93 NE7       29.73R WCI  30

$$

REGIONAL REPORTS     COLORADO/ARIZONA

CITY           SKY/WX    TMP DP  RH WIND       PRES   REMARKS
CRAIG, CO      CLEAR     27  11  51 E3        29.75R
GRAND JUNCTION CLEAR     31  23  72 CALM      29.75R
RIFLE          PTCLDY    31  21  66 S3        29.75R
MONTROSE       PTCLDY    30  24  78 S6        29.78R WCI  24
CORTEZ         CLOUDY    31  29  92 CALM      29.77R
PAGE, AZ       PTCLDY    41  34  76 N5        29.71S
GRAND CANYON   CLOUDY    34  32  92 E5        29.72S WCI  30
KINGMAN        PTCLDY    49  28  44 S7        29.64F
FLAGSTAFF      CLOUDY    38  23  55 SW13      29.72F WCI  30

$$

REGIONAL REPORTS    NEVADA/IDAHO/WYOMING

CITY           SKY/WX    TMP DP  RH WIND       PRES   REMARKS
LAS VEGAS, NV  PTCLDY    63  24  22 SE10      29.53F
ELY            MOCLDY    32  26  78 SE5       29.63R WCI  27
ELKO           MOCLDY    39  27  62 W5        29.60S
POCATELLO, ID  CLEAR     30  23  75 NE7       29.73R WCI  23
BURLEY         CLOUDY    39  27  62 E10       29.67S WCI  32
EVANSTON, WY   PTCLDY    27  17  66 CALM      29.69R
ROCK SPRINGS   PTCLDY    24  15  68 SE8       29.72R WCI  15

$$



USA.gov is the U.S. government's official web portal to all federal, state and local government web resources and services.